Time,TemperatureF,DewpointF,PressureIn,WindDirection,WindDirectionDegrees,WindSpeedMPH,WindSpeedGustMPH,Humidity,HourlyPrecipIn,Conditions,Clouds,dailyrainin,SolarRadiationWatts/m^2,SoftwareType,DateUTC
2013-09-24 00:02:00,55.7,46.1,29.87,SSE,151,0.0,0.0,70,0.00,,,0.00,0,Wunderground v.1.15,2013-09-24 07:02:00,
2013-09-24 00:07:00,55.5,46.2,29.87,SSE,151,0.0,0.0,71,0.00,,,0.00,0,Wunderground v.1.15,2013-09-24 07:07:00,
2013-09-24 00:13:00,55.2,46.3,29.87,SSE,151,0.0,0.0,72,0.00,,,0.00,0,Wunderground v.1.15,2013-09-24 07:13:00,
2013-09-24 00:18:00,54.9,46.4,29.88,SSE,151,0.0,0.0,73,0.00,,,0.00,0,Wunderground v.1.15,2013-09-24 07:18:00,
2013-09-24 00:24:00,54.8,46.7,29.88,SSE,151,0.0,0.0,74,0.00,,,0.00,0,Wunderground v.1.15,2013-09-24 07:24:00,
2013-09-24 00:30:00,54.7,46.6,29.88,SSE,151,0.0,0.0,74,0.00,,,0.00,0,Wunderground v.1.15,2013-09-24 07:30:00,
2013-09-24 00:35:00,54.6,46.5,29.88,SSE,151,0.0,0.0,74,0.00,,,0.00,0,Wunderground v.1.15,2013-09-24 07:35:00,
2013-09-24 00:40:00,54.4,46.3,29.88,SSE,151,0.0,0.0,74,0.00,,,0.00,0,Wunderground v.1.15,2013-09-24 07:40:00,
2013-09-24 00:46:00,54.2,46.1,29.88,SSE,151,0.0,0.0,74,0.00,,,0.00,0,Wunderground v.1.15,2013-09-24 07:46:00,
2013-09-24 00:51:00,54.1,46.3,29.88,SSE,151,0.0,0.0,75,0.00,,,0.00,0,Wunderground v.1.15,2013-09-24 07:51:00,
2013-09-24 00:57:00,53.8,46.1,29.88,SSE,151,0.0,0.0,75,0.00,,,0.00,0,Wunderground v.1.15,2013-09-24 07:57:00,
2013-09-24 01:02:00,53.6,45.9,29.88,SSE,151,0.0,0.0,75,0.00,,,0.00,0,Wunderground v.1.15,2013-09-24 08:02:00,
2013-09-24 01:07:00,53.4,46.0,29.89,SSE,151,0.0,0.0,76,0.00,,,0.00,0,Wunderground v.1.15,2013-09-24 08:07:00,
2013-09-24 01:12:00,53.2,46.2,29.88,SSE,151,0.0,0.0,77,0.00,,,0.00,0,Wunderground v.1.15,2013-09-24 08:12:00,
2013-09-24 01:17:00,53.0,46.0,29.89,SSE,151,0.0,0.0,77,0.00,,,0.00,0,Wunderground v.1.15,2013-09-24 08:17:00,
2013-09-24 01:23:00,52.8,46.5,29.89,SSE,151,0.0,0.0,79,0.00,,,0.00,0,Wunderground v.1.15,2013-09-24 08:23:00,
2013-09-24 01:28:00,52.7,46.0,29.89,SSE,151,0.0,0.0,78,0.00,,,0.00,0,Wunderground v.1.15,2013-09-24 08:28:00,
2013-09-24 01:33:00,52.5,46.2,29.89,SSE,151,0.0,0.0,79,0.00,,,0.00,0,Wunderground v.1.15,2013-09-24 08:33:00,
2013-09-24 01:39:00,52.3,46.0,29.88,SSE,151,0.0,0.0,79,0.00,,,0.00,0,Wunderground v.1.15,2013-09-24 08:39:00,
2013-09-24 01:45:00,52.2,46.2,29.89,SSE,151,0.0,0.0,80,0.00,,,0.00,0,Wunderground v.1.15,2013-09-24 08:45:00,
2013-09-24 01:50:00,52.1,46.1,29.89,SSE,151,0.0,0.0,80,0.00,,,0.00,0,Wunderground v.1.15,2013-09-24 08:50:00,
2013-09-24 01:55:00,51.9,45.9,29.89,SSE,151,0.0,0.0,80,0.00,,,0.00,0,Wunderground v.1.15,2013-09-24 08:55:00,
2013-09-24 02:00:00,51.8,45.8,29.89,SSE,151,0.0,0.0,80,0.00,,,0.00,0,Wunderground v.1.15,2013-09-24 09:00:00,
2013-09-24 02:05:00,51.7,45.7,29.89,SSE,151,0.0,0.0,80,0.00,,,0.00,0,Wunderground v.1.15,2013-09-24 09:05:00,
2013-09-24 02:10:00,51.6,46.0,29.89,SSE,151,0.0,0.0,81,0.00,,,0.00,0,Wunderground v.1.15,2013-09-24 09:10:00,
2013-09-24 02:15:00,51.5,45.9,29.89,SSE,151,0.0,0.0,81,0.00,,,0.00,0,Wunderground v.1.15,2013-09-24 09:15:00,
2013-09-24 02:20:00,51.4,45.8,29.89,SSE,151,0.0,0.0,81,0.00,,,0.00,0,Wunderground v.1.15,2013-09-24 09:20:00,
2013-09-24 02:25:00,51.2,45.6,29.89,SSE,151,0.0,0.0,81,0.00,,,0.00,0,Wunderground v.1.15,2013-09-24 09:25:00,
2013-09-24 02:30:00,51.0,45.4,29.89,SSE,151,0.0,0.0,81,0.00,,,0.00,0,Wunderground v.1.15,2013-09-24 09:30:00,
2013-09-24 02:35:00,50.9,45.3,29.89,SSE,151,0.0,0.0,81,0.00,,,0.00,0,Wunderground v.1.15,2013-09-24 09:35:00,
2013-09-24 02:40:00,50.8,45.5,29.89,SSE,151,0.0,0.0,82,0.00,,,0.00,0,Wunderground v.1.15,2013-09-24 09:40:00,
2013-09-24 02:45:00,50.7,45.1,29.89,SSE,151,0.0,0.0,81,0.00,,,0.00,0,Wunderground v.1.15,2013-09-24 09:45:00,
2013-09-24 02:50:00,50.5,45.2,29.89,SSE,151,0.0,0.0,82,0.00,,,0.00,0,Wunderground v.1.15,2013-09-24 09:50:00,
2013-09-24 02:55:00,50.4,45.1,29.90,SSE,151,0.0,0.0,82,0.00,,,0.00,0,Wunderground v.1.15,2013-09-24 09:55:00,
2013-09-24 03:00:00,50.3,45.0,29.89,SSE,151,0.0,0.0,82,0.00,,,0.00,0,Wunderground v.1.15,2013-09-24 10:00:00,
2013-09-24 03:05:00,50.2,45.2,29.89,SSE,151,0.0,0.0,83,0.00,,,0.00,0,Wunderground v.1.15,2013-09-24 10:05:00,
2013-09-24 03:10:00,50.0,44.7,29.89,SSE,151,0.0,0.0,82,0.00,,,0.00,0,Wunderground v.1.15,2013-09-24 10:10:00,
2013-09-24 03:15:00,49.9,44.6,29.89,SSE,151,0.0,0.0,82,0.00,,,0.00,0,Wunderground v.1.15,2013-09-24 10:15:00,
2013-09-24 03:20:00,49.7,44.7,29.89,SSE,151,0.0,0.0,83,0.00,,,0.00,0,Wunderground v.1.15,2013-09-24 10:20:00,
2013-09-24 03:25:00,49.5,44.6,29.89,SSE,151,0.0,0.0,83,0.00,,,0.00,0,Wunderground v.1.15,2013-09-24 10:25:00,
2013-09-24 03:30:00,49.4,44.5,29.89,SSE,151,0.0,0.0,83,0.00,,,0.00,0,Wunderground v.1.15,2013-09-24 10:30:00,
2013-09-24 03:35:00,49.2,44.3,29.90,SSE,151,0.0,0.0,83,0.00,,,0.00,0,Wunderground v.1.15,2013-09-24 10:35:00,
2013-09-24 03:40:00,49.2,44.3,29.89,SSE,151,0.0,0.0,83,0.00,,,0.00,0,Wunderground v.1.15,2013-09-24 10:40:00,
2013-09-24 03:45:00,49.0,44.1,29.90,SSE,151,0.0,0.0,83,0.00,,,0.00,0,Wunderground v.1.15,2013-09-24 10:45:00,
2013-09-24 03:50:00,48.9,44.0,29.90,SSE,151,0.0,0.0,83,0.00,,,0.00,0,Wunderground v.1.15,2013-09-24 10:50:00,
2013-09-24 03:55:00,48.8,43.9,29.90,SSE,151,0.0,0.0,83,0.00,,,0.00,0,Wunderground v.1.15,2013-09-24 10:55:00,
2013-09-24 04:00:00,48.7,44.1,29.90,SSE,151,0.0,0.0,84,0.00,,,0.00,0,Wunderground v.1.15,2013-09-24 11:00:00,
2013-09-24 04:05:00,48.6,44.0,29.89,SSE,151,0.0,0.0,84,0.00,,,0.00,0,Wunderground v.1.15,2013-09-24 11:05:00,
2013-09-24 04:10:00,48.7,44.4,29.90,SSE,151,0.0,0.0,85,0.00,,,0.00,0,Wunderground v.1.15,2013-09-24 11:10:00,
2013-09-24 04:15:00,48.8,44.8,29.89,SSE,151,0.0,0.0,86,0.00,,,0.00,0,Wunderground v.1.15,2013-09-24 11:15:00,
2013-09-24 04:20:00,48.7,44.7,29.90,SSE,151,0.0,0.0,86,0.00,,,0.00,0,Wunderground v.1.15,2013-09-24 11:20:00,
2013-09-24 04:25:00,48.5,44.5,29.90,SSE,151,0.0,0.0,86,0.00,,,0.00,0,Wunderground v.1.15,2013-09-24 11:25:00,
2013-09-24 04:30:00,48.4,44.1,29.90,SSE,151,0.0,0.0,85,0.00,,,0.00,0,Wunderground v.1.15,2013-09-24 11:30:00,
2013-09-24 04:35:00,48.3,44.3,29.90,SSE,151,0.0,0.0,86,0.00,,,0.00,0,Wunderground v.1.15,2013-09-24 11:35:00,
2013-09-24 04:40:00,48.1,44.1,29.90,SSE,151,0.0,0.0,86,0.00,,,0.00,0,Wunderground v.1.15,2013-09-24 11:40:00,
2013-09-24 04:45:00,48.1,44.1,29.90,SSE,151,0.0,0.0,86,0.00,,,0.00,0,Wunderground v.1.15,2013-09-24 11:45:00,
2013-09-24 04:50:00,48.0,44.0,29.90,SSE,151,0.0,0.0,86,0.00,,,0.00,0,Wunderground v.1.15,2013-09-24 11:50:00,
2013-09-24 04:56:00,48.0,44.0,29.90,SSE,151,0.0,0.0,86,0.00,,,0.00,0,Wunderground v.1.15,2013-09-24 11:56:00,
2013-09-24 05:01:00,47.9,43.9,29.91,SSE,151,0.0,0.0,86,0.00,,,0.00,0,Wunderground v.1.15,2013-09-24 12:01:00,
2013-09-24 05:06:00,47.9,44.2,29.91,SSE,151,0.0,0.0,87,0.00,,,0.00,0,Wunderground v.1.15,2013-09-24 12:06:00,
2013-09-24 05:11:00,47.8,44.1,29.91,SSE,151,0.0,0.0,87,0.00,,,0.00,0,Wunderground v.1.15,2013-09-24 12:11:00,
2013-09-24 05:16:00,47.8,44.1,29.91,SSE,151,0.0,0.0,87,0.00,,,0.00,0,Wunderground v.1.15,2013-09-24 12:16:00,
2013-09-24 05:21:00,47.8,44.1,29.91,SSE,151,0.0,0.0,87,0.00,,,0.00,0,Wunderground v.1.15,2013-09-24 12:21:00,
2013-09-24 05:26:00,47.7,44.0,29.92,SSE,151,0.0,0.0,87,0.00,,,0.00,0,Wunderground v.1.15,2013-09-24 12:26:00,
2013-09-24 05:31:00,47.6,43.9,29.92,SSE,151,0.0,0.0,87,0.00,,,0.00,0,Wunderground v.1.15,2013-09-24 12:31:00,
2013-09-24 05:36:00,47.7,44.0,29.92,SSE,151,0.0,0.0,87,0.00,,,0.00,0,Wunderground v.1.15,2013-09-24 12:36:00,
2013-09-24 05:41:00,47.7,44.0,29.92,SSE,151,0.0,0.0,87,0.00,,,0.00,0,Wunderground v.1.15,2013-09-24 12:41:00,
2013-09-24 05:46:00,47.6,43.9,29.92,SSE,151,0.0,0.0,87,0.00,,,0.00,0,Wunderground v.1.15,2013-09-24 12:46:00,
2013-09-24 05:51:00,47.6,43.9,29.92,SSE,151,0.0,0.0,87,0.00,,,0.00,0,Wunderground v.1.15,2013-09-24 12:51:00,
2013-09-24 05:56:00,47.5,44.1,29.92,SSE,151,0.0,0.0,88,0.00,,,0.00,0,Wunderground v.1.15,2013-09-24 12:56:00,
2013-09-24 06:01:00,47.5,44.1,29.93,SSE,151,0.0,0.0,88,0.00,,,0.00,0,Wunderground v.1.15,2013-09-24 13:01:00,
2013-09-24 06:06:00,47.4,44.0,29.93,SSE,151,0.0,0.0,88,0.00,,,0.00,0,Wunderground v.1.15,2013-09-24 13:06:00,
2013-09-24 06:11:00,47.3,43.9,29.93,SSE,151,0.0,0.0,88,0.00,,,0.00,0,Wunderground v.1.15,2013-09-24 13:11:00,
2013-09-24 06:16:00,47.3,43.9,29.93,SSE,151,0.0,0.0,88,0.00,,,0.00,7,Wunderground v.1.15,2013-09-24 13:16:00,
2013-09-24 06:21:00,47.2,43.8,29.93,SSE,151,0.0,0.0,88,0.00,,,0.00,9,Wunderground v.1.15,2013-09-24 13:21:00,
2013-09-24 06:26:00,47.1,43.7,29.94,SSE,151,0.0,0.0,88,0.00,,,0.00,11,Wunderground v.1.15,2013-09-24 13:26:00,
2013-09-24 06:31:00,47.1,43.7,29.94,SSE,151,0.0,0.0,88,0.00,,,0.00,19,Wunderground v.1.15,2013-09-24 13:31:00,
2013-09-24 06:36:00,47.2,43.8,29.94,SSE,151,0.0,0.0,88,0.00,,,0.00,30,Wunderground v.1.15,2013-09-24 13:36:00,
2013-09-24 06:41:00,47.3,44.2,29.94,SSE,151,0.0,0.0,89,0.00,,,0.00,42,Wunderground v.1.15,2013-09-24 13:41:00,
2013-09-24 06:46:00,47.6,44.5,29.94,SSE,151,0.0,0.0,89,0.00,,,0.00,56,Wunderground v.1.15,2013-09-24 13:46:00,
2013-09-24 06:52:00,48.1,45.0,29.94,SSE,151,0.0,0.0,89,0.00,,,0.00,72,Wunderground v.1.15,2013-09-24 13:52:00,
2013-09-24 06:57:00,48.6,45.8,29.95,ESE,118,0.0,0.0,90,0.00,,,0.00,86,Wunderground v.1.15,2013-09-24 13:57:00,
2013-09-24 07:02:00,49.2,46.4,29.95,ESE,118,0.0,0.0,90,0.00,,,0.00,104,Wunderground v.1.15,2013-09-24 14:02:00,
2013-09-24 07:07:00,49.9,47.1,29.95,ESE,118,0.0,0.0,90,0.00,,,0.00,123,Wunderground v.1.15,2013-09-24 14:07:00,
2013-09-24 07:12:00,50.5,47.7,29.95,ESE,118,0.0,0.0,90,0.00,,,0.00,142,Wunderground v.1.15,2013-09-24 14:12:00,
2013-09-24 07:17:00,51.2,48.4,29.95,ESE,118,0.0,0.0,90,0.00,,,0.00,162,Wunderground v.1.15,2013-09-24 14:17:00,
2013-09-24 07:22:00,51.9,49.1,29.95,ESE,118,0.0,1.0,90,0.00,,,0.00,181,Wunderground v.1.15,2013-09-24 14:22:00,
2013-09-24 07:27:00,52.7,49.5,29.95,ESE,118,0.0,1.0,89,0.00,,,0.00,200,Wunderground v.1.15,2013-09-24 14:27:00,
2013-09-24 07:32:00,53.5,50.0,29.95,ESE,119,0.0,0.0,88,0.00,,,0.00,216,Wunderground v.1.15,2013-09-24 14:32:00,
2013-09-24 07:37:00,54.4,50.3,29.95,ESE,119,0.0,3.0,86,0.00,,,0.00,236,Wunderground v.1.15,2013-09-24 14:37:00,
2013-09-24 07:42:00,55.3,50.2,29.95,ESE,119,0.0,1.0,83,0.00,,,0.00,258,Wunderground v.1.15,2013-09-24 14:42:00,
2013-09-24 07:47:00,56.4,50.3,29.95,ESE,119,0.0,2.0,80,0.00,,,0.00,279,Wunderground v.1.15,2013-09-24 14:47:00,
2013-09-24 07:52:00,57.4,50.6,29.95,ESE,120,0.0,0.0,78,0.00,,,0.00,297,Wunderground v.1.15,2013-09-24 14:52:00,
2013-09-24 07:57:00,58.5,51.0,29.95,ESE,120,0.0,0.0,76,0.00,,,0.00,315,Wunderground v.1.15,2013-09-24 14:57:00,
2013-09-24 08:02:00,59.3,50.6,29.95,ESE,120,0.0,0.0,73,0.00,,,0.00,330,Wunderground v.1.15,2013-09-24 15:02:00,
2013-09-24 08:07:00,60.4,51.0,29.95,ESE,119,0.0,1.0,71,0.00,,,0.00,348,Wunderground v.1.15,2013-09-24 15:07:00,
2013-09-24 08:12:00,61.3,51.0,29.95,ESE,120,0.0,0.0,69,0.00,,,0.00,362,Wunderground v.1.15,2013-09-24 15:12:00,
2013-09-24 08:17:00,62.3,50.8,29.95,ESE,119,0.0,4.0,66,0.00,,,0.00,380,Wunderground v.1.15,2013-09-24 15:17:00,
2013-09-24 08:22:00,63.3,51.7,29.95,ESE,119,1.0,1.0,66,0.00,,,0.00,396,Wunderground v.1.15,2013-09-24 15:22:00,
2013-09-24 08:27:00,64.2,51.3,29.95,ESE,120,0.0,1.0,63,0.00,,,0.00,413,Wunderground v.1.15,2013-09-24 15:27:00,
2013-09-24 08:32:00,65.1,50.4,29.95,ESE,120,0.0,3.0,59,0.00,,,0.00,429,Wunderground v.1.15,2013-09-24 15:32:00,
2013-09-24 08:37:00,66.1,50.9,29.95,ESE,120,0.0,3.0,58,0.00,,,0.00,446,Wunderground v.1.15,2013-09-24 15:37:00,
2013-09-24 08:42:00,66.9,50.2,29.95,ESE,120,0.0,0.0,55,0.00,,,0.00,461,Wunderground v.1.15,2013-09-24 15:42:00,
2013-09-24 08:47:00,67.8,51.5,29.95,ESE,120,0.0,0.0,56,0.00,,,0.00,478,Wunderground v.1.15,2013-09-24 15:47:00,
2013-09-24 08:52:00,68.7,50.9,29.95,ESE,120,0.0,0.0,53,0.00,,,0.00,492,Wunderground v.1.15,2013-09-24 15:52:00,
2013-09-24 08:57:00,70.4,50.9,29.95,ESE,120,0.0,0.0,50,0.00,,,0.00,506,Wunderground v.1.15,2013-09-24 15:57:00,
2013-09-24 09:02:00,71.3,50.6,29.95,ESE,119,0.0,0.0,48,0.00,,,0.00,522,Wunderground v.1.15,2013-09-24 16:02:00,
2013-09-24 09:07:00,72.0,50.1,29.95,ESE,119,0.0,0.0,46,0.00,,,0.00,540,Wunderground v.1.15,2013-09-24 16:07:00,
2013-09-24 09:12:00,72.8,50.2,29.95,ESE,120,0.0,0.0,45,0.00,,,0.00,554,Wunderground v.1.15,2013-09-24 16:12:00,
2013-09-24 09:17:00,73.4,46.2,29.95,ESE,120,0.0,0.0,38,0.00,,,0.00,568,Wunderground v.1.15,2013-09-24 16:17:00,
2013-09-24 09:22:00,74.0,48.8,29.95,ESE,120,0.0,0.0,41,0.00,,,0.00,584,Wunderground v.1.15,2013-09-24 16:22:00,
2013-09-24 09:27:00,74.8,47.5,29.94,ESE,120,0.0,0.0,38,0.00,,,0.00,596,Wunderground v.1.15,2013-09-24 16:27:00,
2013-09-24 09:32:00,75.2,46.4,29.94,ESE,120,0.0,0.0,36,0.00,,,0.00,608,Wunderground v.1.15,2013-09-24 16:32:00,
2013-09-24 09:37:00,75.8,46.2,29.94,ESE,119,0.0,0.0,35,0.00,,,0.00,622,Wunderground v.1.15,2013-09-24 16:37:00,
2013-09-24 09:42:00,76.2,45.8,29.94,ESE,119,0.0,0.0,34,0.00,,,0.00,635,Wunderground v.1.15,2013-09-24 16:42:00,
2013-09-24 09:47:00,76.8,44.7,29.94,ESE,120,0.0,1.0,32,0.00,,,0.00,649,Wunderground v.1.15,2013-09-24 16:47:00,
2013-09-24 09:52:00,77.4,44.4,29.94,ESE,120,0.0,0.0,31,0.00,,,0.00,661,Wunderground v.1.15,2013-09-24 16:52:00,
2013-09-24 09:57:00,77.6,44.6,29.94,ESE,120,0.0,2.0,31,0.00,,,0.00,673,Wunderground v.1.15,2013-09-24 16:57:00,
2013-09-24 10:02:00,78.2,43.3,29.94,ESE,119,0.0,2.0,29,0.00,,,0.00,686,Wunderground v.1.15,2013-09-24 17:02:00,
2013-09-24 10:07:00,78.1,44.1,29.94,ESE,120,0.0,2.0,30,0.00,,,0.00,694,Wunderground v.1.15,2013-09-24 17:07:00,
2013-09-24 10:12:00,78.7,45.5,29.94,ESE,119,0.0,6.0,31,0.00,,,0.00,705,Wunderground v.1.15,2013-09-24 17:12:00,
2013-09-24 10:17:00,79.0,44.9,29.94,ESE,119,0.0,6.0,30,0.00,,,0.00,717,Wunderground v.1.15,2013-09-24 17:17:00,
2013-09-24 10:22:00,79.7,44.6,29.93,ESE,120,3.0,4.0,29,0.00,,,0.00,726,Wunderground v.1.15,2013-09-24 17:22:00,
2013-09-24 10:27:00,80.2,43.2,29.93,ESE,119,0.0,4.0,27,0.00,,,0.00,735,Wunderground v.1.15,2013-09-24 17:27:00,
2013-09-24 10:32:00,80.6,44.5,29.93,ESE,120,0.0,1.0,28,0.00,,,0.00,745,Wunderground v.1.15,2013-09-24 17:32:00,
2013-09-24 10:37:00,80.7,43.6,29.93,ESE,121,0.0,6.0,27,0.00,,,0.00,752,Wunderground v.1.15,2013-09-24 17:37:00,
2013-09-24 10:42:00,81.0,44.8,29.93,ESE,121,0.0,3.0,28,0.00,,,0.00,761,Wunderground v.1.15,2013-09-24 17:42:00,
2013-09-24 10:47:00,81.6,46.3,29.93,ESE,120,0.0,3.0,29,0.00,,,0.00,768,Wunderground v.1.15,2013-09-24 17:47:00,
2013-09-24 10:52:00,82.0,45.7,29.92,ESE,122,4.0,6.0,28,0.00,,,0.00,775,Wunderground v.1.15,2013-09-24 17:52:00,
2013-09-24 10:57:00,82.4,44.1,29.92,ESE,122,0.0,6.0,26,0.00,,,0.00,782,Wunderground v.1.15,2013-09-24 17:57:00,
2013-09-24 11:02:00,81.9,43.6,29.92,ESE,123,3.0,6.0,26,0.00,,,0.00,789,Wunderground v.1.15,2013-09-24 18:02:00,
2013-09-24 11:07:00,82.1,45.8,29.92,SE,128,3.0,8.0,28,0.00,,,0.00,798,Wunderground v.1.15,2013-09-24 18:07:00,
2013-09-24 11:12:00,82.8,46.4,29.92,SE,129,0.0,7.0,28,0.00,,,0.00,802,Wunderground v.1.15,2013-09-24 18:12:00,
2013-09-24 11:17:00,83.1,47.5,29.91,SE,130,0.0,7.0,29,0.00,,,0.00,807,Wunderground v.1.15,2013-09-24 18:17:00,
2013-09-24 11:22:00,83.6,45.1,29.91,SE,132,0.0,8.0,26,0.00,,,0.00,812,Wunderground v.1.15,2013-09-24 18:22:00,
2013-09-24 11:27:00,83.6,47.0,29.91,SE,134,4.0,8.0,28,0.00,,,0.00,816,Wunderground v.1.15,2013-09-24 18:27:00,
2013-09-24 11:32:00,83.8,47.2,29.91,SE,134,0.0,5.0,28,0.00,,,0.00,821,Wunderground v.1.15,2013-09-24 18:32:00,
2013-09-24 11:37:00,84.3,47.6,29.90,SE,135,1.0,5.0,28,0.00,,,0.00,823,Wunderground v.1.15,2013-09-24 18:37:00,
2013-09-24 11:42:00,84.3,47.6,29.90,SE,142,0.0,8.0,28,0.00,,,0.00,828,Wunderground v.1.15,2013-09-24 18:42:00,
2013-09-24 11:47:00,84.8,47.1,29.90,SE,143,0.0,8.0,27,0.00,,,0.00,831,Wunderground v.1.15,2013-09-24 18:47:00,
2013-09-24 11:52:00,85.3,48.5,29.90,SE,145,4.0,8.0,28,0.00,,,0.00,833,Wunderground v.1.15,2013-09-24 18:52:00,
2013-09-24 11:57:00,84.8,47.1,29.90,SSE,147,1.0,8.0,27,0.00,,,0.00,828,Wunderground v.1.15,2013-09-24 18:57:00,
2013-09-24 12:02:00,84.8,49.0,29.89,SSE,147,1.0,6.0,29,0.00,,,0.00,831,Wunderground v.1.15,2013-09-24 19:02:00,
2013-09-24 12:07:00,85.5,45.7,29.89,SE,146,4.0,9.0,25,0.00,,,0.00,833,Wunderground v.1.15,2013-09-24 19:07:00,
2013-09-24 12:12:00,85.6,46.8,29.89,SE,143,0.0,8.0,26,0.00,,,0.00,835,Wunderground v.1.15,2013-09-24 19:12:00,
2013-09-24 12:17:00,85.8,46.9,29.89,SE,145,5.0,10.0,26,0.00,,,0.00,837,Wunderground v.1.15,2013-09-24 19:17:00,
2013-09-24 12:22:00,85.7,46.9,29.88,SSE,151,4.0,10.0,26,0.00,,,0.00,835,Wunderground v.1.15,2013-09-24 19:22:00,
2013-09-24 12:28:00,85.8,44.8,29.88,SSE,157,2.0,10.0,24,0.00,,,0.00,835,Wunderground v.1.15,2013-09-24 19:28:00,
2013-09-24 12:33:00,85.5,46.7,29.88,SSE,161,3.0,9.0,26,0.00,,,0.00,835,Wunderground v.1.15,2013-09-24 19:33:00,
2013-09-24 12:38:00,85.6,47.8,29.87,SSE,161,6.0,9.0,27,0.00,,,0.00,828,Wunderground v.1.15,2013-09-24 19:38:00,
2013-09-24 12:43:00,86.3,47.4,29.87,SSE,160,0.0,4.0,26,0.00,,,0.00,823,Wunderground v.1.15,2013-09-24 19:43:00,
2013-09-24 12:48:00,86.3,47.4,29.87,SSE,158,3.0,8.0,26,0.00,,,0.00,824,Wunderground v.1.15,2013-09-24 19:48:00,
2013-09-24 12:53:00,86.3,47.4,29.86,SSE,154,1.0,9.0,26,0.00,,,0.00,824,Wunderground v.1.15,2013-09-24 19:53:00,
2013-09-24 12:58:00,86.3,47.4,29.86,SSE,147,1.0,13.0,26,0.00,,,0.00,819,Wunderground v.1.15,2013-09-24 19:58:00,
2013-09-24 13:03:00,86.5,47.5,29.86,SSE,147,0.0,2.0,26,0.00,,,0.00,814,Wunderground v.1.15,2013-09-24 20:03:00,
2013-09-24 13:08:00,86.6,47.6,29.85,SSE,147,0.0,2.0,26,0.00,,,0.00,807,Wunderground v.1.15,2013-09-24 20:08:00,
2013-09-24 13:13:00,87.1,48.1,29.85,SE,146,1.0,5.0,26,0.00,,,0.00,800,Wunderground v.1.15,2013-09-24 20:13:00,
2013-09-24 13:18:00,86.7,49.7,29.85,SSE,147,0.0,7.0,28,0.00,,,0.00,795,Wunderground v.1.15,2013-09-24 20:18:00,
2013-09-24 13:24:00,86.9,47.9,29.84,SE,146,0.0,2.0,26,0.00,,,0.00,788,Wunderground v.1.15,2013-09-24 20:24:00,
2013-09-24 13:29:00,87.2,49.1,29.84,SE,144,0.0,8.0,27,0.00,,,0.00,779,Wunderground v.1.15,2013-09-24 20:29:00,
2013-09-24 13:34:00,87.1,48.1,29.84,SE,144,1.0,2.0,26,0.00,,,0.00,772,Wunderground v.1.15,2013-09-24 20:34:00,
2013-09-24 13:39:00,86.9,45.8,29.83,SE,142,0.0,7.0,24,0.00,,,0.00,766,Wunderground v.1.15,2013-09-24 20:39:00,
2013-09-24 13:44:00,87.2,48.1,29.83,SSE,151,0.0,8.0,26,0.00,,,0.00,756,Wunderground v.1.15,2013-09-24 20:44:00,
2013-09-24 13:49:00,87.5,46.3,29.83,SSE,154,3.0,9.0,24,0.00,,,0.00,749,Wunderground v.1.15,2013-09-24 20:49:00,
2013-09-24 13:54:00,87.6,47.4,29.83,SSE,151,0.0,8.0,25,0.00,,,0.00,737,Wunderground v.1.15,2013-09-24 20:54:00,
2013-09-24 13:59:00,88.0,47.8,29.83,SSE,152,0.0,9.0,25,0.00,,,0.00,728,Wunderground v.1.15,2013-09-24 20:59:00,
2013-09-24 14:04:00,87.9,47.7,29.82,SSE,155,0.0,8.0,25,0.00,,,0.00,719,Wunderground v.1.15,2013-09-24 21:04:00,
2013-09-24 14:09:00,87.4,47.3,29.82,SSE,155,0.0,8.0,25,0.00,,,0.00,708,Wunderground v.1.15,2013-09-24 21:09:00,
2013-09-24 14:14:00,87.1,48.1,29.82,SSE,154,0.0,2.0,26,0.00,,,0.00,698,Wunderground v.1.15,2013-09-24 21:14:00,
2013-09-24 14:19:00,87.8,45.4,29.82,SSE,155,2.0,5.0,23,0.00,,,0.00,687,Wunderground v.1.15,2013-09-24 21:19:00,
2013-09-24 14:24:00,87.4,48.3,29.81,SSE,155,0.0,3.0,26,0.00,,,0.00,677,Wunderground v.1.15,2013-09-24 21:24:00,
2013-09-24 14:29:00,87.2,47.1,29.81,SSE,155,0.0,5.0,25,0.00,,,0.00,663,Wunderground v.1.15,2013-09-24 21:29:00,
2013-09-24 14:35:00,88.1,48.9,29.81,SSE,156,0.0,4.0,26,0.00,,,0.00,654,Wunderground v.1.15,2013-09-24 21:35:00,
2013-09-24 14:40:00,88.4,45.9,29.81,SSE,155,0.0,0.0,23,0.00,,,0.00,638,Wunderground v.1.15,2013-09-24 21:40:00,
2013-09-24 14:45:00,88.7,48.4,29.80,SSE,160,4.0,9.0,25,0.00,,,0.00,626,Wunderground v.1.15,2013-09-24 21:45:00,
2013-09-24 14:50:00,88.6,44.9,29.80,SSE,162,0.0,1.0,22,0.00,,,0.00,612,Wunderground v.1.15,2013-09-24 21:50:00,
2013-09-24 14:55:00,88.5,48.2,29.80,SSE,161,5.0,7.0,25,0.00,,,0.00,598,Wunderground v.1.15,2013-09-24 21:55:00,
2013-09-24 15:00:00,88.4,45.9,29.80,SSE,158,0.0,1.0,23,0.00,,,0.00,584,Wunderground v.1.15,2013-09-24 22:00:00,
2013-09-24 15:06:00,88.4,47.0,29.80,SSE,156,0.0,2.0,24,0.00,,,0.00,568,Wunderground v.1.15,2013-09-24 22:06:00,
2013-09-24 15:11:00,88.5,48.2,29.79,SSE,155,0.0,0.0,25,0.00,,,0.00,557,Wunderground v.1.15,2013-09-24 22:11:00,
2013-09-24 15:16:00,88.4,47.0,29.79,SSE,155,0.0,5.0,24,0.00,,,0.00,540,Wunderground v.1.15,2013-09-24 22:16:00,
2013-09-24 15:21:00,88.2,46.8,29.79,SSE,155,0.0,5.0,24,0.00,,,0.00,524,Wunderground v.1.15,2013-09-24 22:21:00,
2013-09-24 15:26:00,88.4,49.2,29.79,SSE,156,1.0,5.0,26,0.00,,,0.00,510,Wunderground v.1.15,2013-09-24 22:26:00,
2013-09-24 15:31:00,88.5,46.0,29.79,SSE,156,0.0,0.0,23,0.00,,,0.00,496,Wunderground v.1.15,2013-09-24 22:31:00,
2013-09-24 15:36:00,88.7,47.3,29.79,SSE,155,0.0,6.0,24,0.00,,,0.00,483,Wunderground v.1.15,2013-09-24 22:36:00,
2013-09-24 15:41:00,88.3,46.9,29.79,SSE,155,0.0,2.0,24,0.00,,,0.00,468,Wunderground v.1.15,2013-09-24 22:41:00,
2013-09-24 15:46:00,88.3,46.9,29.79,SSE,156,1.0,3.0,24,0.00,,,0.00,452,Wunderground v.1.15,2013-09-24 22:46:00,
2013-09-24 15:51:00,88.3,46.9,29.79,SSE,156,0.0,3.0,24,0.00,,,0.00,434,Wunderground v.1.15,2013-09-24 22:51:00,
2013-09-24 15:56:00,88.4,48.1,29.79,SSE,155,0.0,3.0,25,0.00,,,0.00,418,Wunderground v.1.15,2013-09-24 22:56:00,
2013-09-24 16:01:00,88.3,46.9,29.79,SSE,156,0.0,3.0,24,0.00,,,0.00,403,Wunderground v.1.15,2013-09-24 23:01:00,
2013-09-24 16:06:00,88.0,47.8,29.78,SSE,156,0.0,3.0,25,0.00,,,0.00,385,Wunderground v.1.15,2013-09-24 23:06:00,
2013-09-24 16:11:00,88.1,45.6,29.78,SSE,155,1.0,5.0,23,0.00,,,0.00,376,Wunderground v.1.15,2013-09-24 23:11:00,
2013-09-24 16:16:00,87.9,46.6,29.78,SSE,156,0.0,6.0,24,0.00,,,0.00,357,Wunderground v.1.15,2013-09-24 23:16:00,
2013-09-24 16:21:00,87.8,46.5,29.78,SSE,155,0.0,1.0,24,0.00,,,0.00,339,Wunderground v.1.15,2013-09-24 23:21:00,
2013-09-24 16:26:00,87.7,45.3,29.78,SSE,156,0.0,1.0,23,0.00,,,0.00,323,Wunderground v.1.15,2013-09-24 23:26:00,
2013-09-24 16:31:00,87.9,45.5,29.78,SSE,155,0.0,0.0,23,0.00,,,0.00,306,Wunderground v.1.15,2013-09-24 23:31:00,
2013-09-24 16:36:00,87.8,47.6,29.78,SSE,156,0.0,3.0,25,0.00,,,0.00,290,Wunderground v.1.15,2013-09-24 23:36:00,
2013-09-24 16:41:00,87.8,47.6,29.78,SSE,155,0.0,0.0,25,0.00,,,0.00,274,Wunderground v.1.15,2013-09-24 23:41:00,
2013-09-24 16:46:00,87.6,46.3,29.78,SSE,155,0.0,0.0,24,0.00,,,0.00,258,Wunderground v.1.15,2013-09-24 23:46:00,
2013-09-24 16:51:00,87.3,47.2,29.78,SSE,156,0.0,0.0,25,0.00,,,0.00,241,Wunderground v.1.15,2013-09-24 23:51:00,
2013-09-24 16:56:00,87.2,47.1,29.78,SSE,156,0.0,0.0,25,0.00,,,0.00,221,Wunderground v.1.15,2013-09-24 23:56:00,
2013-09-24 17:01:00,87.1,51.0,29.77,SSE,156,0.0,0.0,29,0.00,,,0.00,202,Wunderground v.1.15,2013-09-25 00:01:00,
2013-09-24 17:06:00,86.8,48.8,29.77,SSE,156,0.0,3.0,27,0.00,,,0.00,183,Wunderground v.1.15,2013-09-25 00:06:00,
2013-09-24 17:11:00,86.5,46.5,29.77,SSE,155,0.0,0.0,25,0.00,,,0.00,162,Wunderground v.1.15,2013-09-25 00:11:00,
2013-09-24 17:16:00,86.3,48.4,29.77,SSE,155,0.0,1.0,27,0.00,,,0.00,141,Wunderground v.1.15,2013-09-25 00:16:00,
2013-09-24 17:21:00,85.8,48.9,29.77,SSE,156,0.0,0.0,28,0.00,,,0.00,120,Wunderground v.1.15,2013-09-25 00:21:00,
2013-09-24 17:26:00,85.5,48.7,29.77,SSE,156,0.0,0.0,28,0.00,,,0.00,104,Wunderground v.1.15,2013-09-25 00:26:00,
2013-09-24 17:31:00,85.1,49.3,29.77,SSE,155,0.0,0.0,29,0.00,,,0.00,84,Wunderground v.1.15,2013-09-25 00:31:00,
2013-09-24 17:36:00,84.8,49.0,29.77,SSE,156,0.0,0.0,29,0.00,,,0.00,67,Wunderground v.1.15,2013-09-25 00:36:00,
2013-09-24 17:41:00,84.6,49.7,29.77,SSE,156,0.0,0.0,30,0.00,,,0.00,51,Wunderground v.1.15,2013-09-25 00:41:00,
2013-09-24 17:46:00,84.5,48.8,29.77,SSE,156,0.0,1.0,29,0.00,,,0.00,37,Wunderground v.1.15,2013-09-25 00:46:00,
2013-09-24 17:51:00,84.5,48.8,29.77,SSE,155,0.0,0.0,29,0.00,,,0.00,25,Wunderground v.1.15,2013-09-25 00:51:00,
2013-09-24 18:00:00,83.9,48.2,29.77,SSE,155,0.0,0.0,29,0.00,,,0.00,11,Wunderground v.1.15,2013-09-25 01:00:00,
2013-09-24 18:06:00,83.5,48.8,29.78,SSE,156,0.0,0.0,30,0.00,,,0.00,7,Wunderground v.1.15,2013-09-25 01:06:00,
2013-09-24 18:36:00,78.5,46.2,29.78,SSE,156,0.0,0.0,32,0.00,,,0.00,0,Wunderground v.1.15,2013-09-25 01:36:00,
2013-09-24 18:42:00,77.5,46.1,29.78,SSE,155,0.0,0.0,33,0.00,,,0.00,0,Wunderground v.1.15,2013-09-25 01:42:00,
2013-09-24 18:50:00,76.3,45.9,29.78,SSE,156,0.0,0.0,34,0.00,,,0.00,0,Wunderground v.1.15,2013-09-25 01:50:00,
2013-09-24 18:55:00,75.5,45.2,29.78,SSE,155,0.0,0.0,34,0.00,,,0.00,0,Wunderground v.1.15,2013-09-25 01:55:00,
2013-09-24 19:00:00,74.7,44.5,29.78,SSE,155,0.0,0.0,34,0.00,,,0.00,0,Wunderground v.1.15,2013-09-25 02:00:00,
2013-09-24 19:06:00,73.8,45.2,29.78,SSE,156,0.0,3.0,36,0.00,,,0.00,0,Wunderground v.1.15,2013-09-25 02:06:00,
2013-09-24 19:11:00,73.1,45.3,29.78,SSE,155,0.0,0.0,37,0.00,,,0.00,0,Wunderground v.1.15,2013-09-25 02:11:00,
2013-09-24 19:16:00,72.6,44.8,29.79,SSE,156,0.0,0.0,37,0.00,,,0.00,0,Wunderground v.1.15,2013-09-25 02:16:00,
2013-09-24 19:21:00,72.2,45.9,29.79,SSE,156,0.0,0.0,39,0.00,,,0.00,0,Wunderground v.1.15,2013-09-25 02:21:00,
2013-09-24 19:26:00,71.5,45.9,29.79,SSE,156,0.0,0.0,40,0.00,,,0.00,0,Wunderground v.1.15,2013-09-25 02:26:00,
2013-09-24 19:31:00,70.9,44.0,29.79,SSE,156,0.0,0.0,38,0.00,,,0.00,0,Wunderground v.1.15,2013-09-25 02:31:00,
2013-09-24 19:36:00,70.5,44.3,29.80,SSE,156,0.0,0.0,39,0.00,,,0.00,0,Wunderground v.1.15,2013-09-25 02:36:00,
2013-09-24 19:41:00,70.3,45.5,29.80,SSE,155,0.0,0.0,41,0.00,,,0.00,0,Wunderground v.1.15,2013-09-25 02:41:00,
2013-09-24 19:46:00,70.0,45.8,29.80,SSE,155,0.0,0.0,42,0.00,,,0.00,0,Wunderground v.1.15,2013-09-25 02:46:00,
2013-09-24 19:51:00,69.7,45.6,29.80,SSE,156,0.0,0.0,42,0.00,,,0.00,0,Wunderground v.1.15,2013-09-25 02:51:00,
2013-09-24 19:56:00,69.4,47.1,29.80,SSE,156,0.0,0.0,45,0.00,,,0.00,0,Wunderground v.1.15,2013-09-25 02:56:00,
2013-09-24 20:01:00,69.0,47.4,29.80,SSE,156,0.0,0.0,46,0.00,,,0.00,0,Wunderground v.1.15,2013-09-25 03:01:00,
2013-09-24 20:06:00,68.5,47.5,29.80,SSE,156,0.0,0.0,47,0.00,,,0.00,0,Wunderground v.1.15,2013-09-25 03:06:00,
2013-09-24 20:11:00,67.8,46.8,29.81,SSE,155,0.0,0.0,47,0.00,,,0.00,0,Wunderground v.1.15,2013-09-25 03:11:00,
2013-09-24 20:16:00,67.2,47.4,29.81,SSE,155,0.0,0.0,49,0.00,,,0.00,0,Wunderground v.1.15,2013-09-25 03:16:00,
2013-09-24 20:21:00,66.7,48.0,29.81,SSE,156,0.0,0.0,51,0.00,,,0.00,0,Wunderground v.1.15,2013-09-25 03:21:00,
2013-09-24 20:26:00,66.0,44.6,29.81,SSE,155,0.0,5.0,46,0.00,,,0.00,0,Wunderground v.1.15,2013-09-25 03:26:00,
2013-09-24 20:31:00,65.6,44.8,29.81,SSE,156,0.0,0.0,47,0.00,,,0.00,0,Wunderground v.1.15,2013-09-25 03:31:00,
2013-09-24 20:36:00,65.4,44.6,29.82,SSE,156,0.0,0.0,47,0.00,,,0.00,0,Wunderground v.1.15,2013-09-25 03:36:00,
2013-09-24 20:41:00,65.3,44.5,29.82,SSE,156,0.0,0.0,47,0.00,,,0.00,0,Wunderground v.1.15,2013-09-25 03:41:00,
2013-09-24 20:46:00,65.2,45.0,29.82,SSE,155,0.0,0.0,48,0.00,,,0.00,0,Wunderground v.1.15,2013-09-25 03:46:00,
2013-09-24 20:51:00,65.1,44.4,29.82,SSE,156,0.0,0.0,47,0.00,,,0.00,0,Wunderground v.1.15,2013-09-25 03:51:00,
2013-09-24 20:56:00,65.0,44.8,29.82,SSE,156,0.0,0.0,48,0.00,,,0.00,0,Wunderground v.1.15,2013-09-25 03:56:00,
2013-09-24 21:01:00,64.9,44.7,29.82,SSE,156,0.0,0.0,48,0.00,,,0.00,0,Wunderground v.1.15,2013-09-25 04:01:00,
2013-09-24 21:06:00,64.6,45.0,29.81,SSE,156,0.0,0.0,49,0.00,,,0.00,0,Wunderground v.1.15,2013-09-25 04:06:00,
2013-09-24 21:11:00,64.4,44.8,29.81,SSE,156,0.0,0.0,49,0.00,,,0.00,0,Wunderground v.1.15,2013-09-25 04:11:00,
2013-09-24 21:16:00,64.1,44.0,29.81,SSE,156,0.0,0.0,48,0.00,,,0.00,0,Wunderground v.1.15,2013-09-25 04:16:00,
2013-09-24 21:21:00,63.8,41.5,29.81,SSE,156,0.0,0.0,44,0.00,,,0.00,0,Wunderground v.1.15,2013-09-25 04:21:00,
2013-09-24 21:26:00,63.6,43.5,29.81,SSE,156,0.0,0.0,48,0.00,,,0.00,0,Wunderground v.1.15,2013-09-25 04:26:00,
2013-09-24 21:31:00,63.4,42.8,29.81,SSE,156,0.0,0.0,47,0.00,,,0.00,0,Wunderground v.1.15,2013-09-25 04:31:00,
2013-09-24 21:36:00,63.1,42.5,29.81,SSE,155,0.0,0.0,47,0.00,,,0.00,0,Wunderground v.1.15,2013-09-25 04:36:00,
2013-09-24 21:41:00,62.8,42.3,29.81,SSE,155,0.0,0.0,47,0.00,,,0.00,0,Wunderground v.1.15,2013-09-25 04:41:00,
2013-09-24 21:46:00,62.6,44.7,29.81,SSE,156,0.0,0.0,52,0.00,,,0.00,0,Wunderground v.1.15,2013-09-25 04:46:00,
2013-09-24 21:51:00,62.2,44.3,29.81,SSE,156,0.0,0.0,52,0.00,,,0.00,0,Wunderground v.1.15,2013-09-25 04:51:00,
2013-09-24 21:56:00,61.7,42.9,29.81,SSE,156,0.0,0.0,50,0.00,,,0.00,0,Wunderground v.1.15,2013-09-25 04:56:00,
2013-09-24 22:01:00,61.3,43.0,29.81,SSE,156,0.0,0.0,51,0.00,,,0.00,0,Wunderground v.1.15,2013-09-25 05:01:00,
2013-09-24 22:06:00,60.9,43.1,29.81,SSE,156,0.0,0.0,52,0.00,,,0.00,0,Wunderground v.1.15,2013-09-25 05:06:00,
2013-09-24 22:11:00,60.7,43.0,29.81,SSE,156,0.0,0.0,52,0.00,,,0.00,0,Wunderground v.1.15,2013-09-25 05:11:00,
2013-09-24 22:16:00,60.5,43.3,29.81,SSE,156,0.0,0.0,53,0.00,,,0.00,0,Wunderground v.1.15,2013-09-25 05:16:00,
2013-09-24 22:21:00,60.3,44.1,29.81,SSE,156,0.0,0.0,55,0.00,,,0.00,0,Wunderground v.1.15,2013-09-25 05:21:00,
2013-09-24 22:26:00,60.1,44.3,29.81,SSE,155,0.0,0.0,56,0.00,,,0.00,0,Wunderground v.1.15,2013-09-25 05:26:00,
2013-09-24 22:31:00,59.9,43.7,29.81,SSE,156,0.0,0.0,55,0.00,,,0.00,0,Wunderground v.1.15,2013-09-25 05:31:00,
2013-09-24 22:36:00,59.6,44.3,29.81,SSE,156,0.0,0.0,57,0.00,,,0.00,0,Wunderground v.1.15,2013-09-25 05:36:00,
2013-09-24 22:41:00,59.4,44.2,29.81,SSE,155,0.0,0.0,57,0.00,,,0.00,0,Wunderground v.1.15,2013-09-25 05:41:00,
2013-09-24 22:46:00,59.0,43.8,29.81,SSE,156,0.0,0.0,57,0.00,,,0.00,0,Wunderground v.1.15,2013-09-25 05:46:00,
2013-09-24 22:51:00,59.0,43.8,29.81,SSE,156,0.0,0.0,57,0.00,,,0.00,0,Wunderground v.1.15,2013-09-25 05:51:00,
2013-09-24 22:56:00,58.8,44.0,29.81,SSE,156,0.0,0.0,58,0.00,,,0.00,0,Wunderground v.1.15,2013-09-25 05:56:00,
2013-09-24 23:01:00,58.5,44.7,29.81,SSE,156,0.0,0.0,60,0.00,,,0.00,0,Wunderground v.1.15,2013-09-25 06:01:00,
2013-09-24 23:06:00,58.3,44.9,29.81,SSE,156,0.0,0.0,61,0.00,,,0.00,0,Wunderground v.1.15,2013-09-25 06:06:00,
2013-09-24 23:11:00,58.1,45.1,29.81,SSE,156,0.0,0.0,62,0.00,,,0.00,0,Wunderground v.1.15,2013-09-25 06:11:00,
2013-09-24 23:16:00,57.8,44.9,29.81,SSE,155,0.0,0.0,62,0.00,,,0.00,0,Wunderground v.1.15,2013-09-25 06:16:00,
2013-09-24 23:21:00,57.6,45.5,29.81,SSE,155,0.0,0.0,64,0.00,,,0.00,0,Wunderground v.1.15,2013-09-25 06:21:00,
2013-09-24 23:26:00,57.4,45.3,29.81,SSE,156,0.0,0.0,64,0.00,,,0.00,0,Wunderground v.1.15,2013-09-25 06:26:00,
2013-09-24 23:31:00,57.1,42.9,29.81,SSE,156,0.0,0.0,59,0.00,,,0.00,0,Wunderground v.1.15,2013-09-25 06:31:00,
2013-09-24 23:36:00,56.7,40.2,29.81,SSE,156,0.0,0.0,54,0.00,,,0.00,0,Wunderground v.1.15,2013-09-25 06:36:00,
2013-09-24 23:41:00,56.6,41.5,29.81,SSE,156,0.0,0.0,57,0.00,,,0.00,0,Wunderground v.1.15,2013-09-25 06:41:00,
2013-09-24 23:46:00,56.5,41.4,29.81,SSE,155,0.0,0.0,57,0.00,,,0.00,0,Wunderground v.1.15,2013-09-25 06:46:00,
2013-09-24 23:51:00,56.4,41.8,29.81,SSE,156,0.0,0.0,58,0.00,,,0.00,0,Wunderground v.1.15,2013-09-25 06:51:00,
2013-09-24 23:56:00,56.3,41.7,29.81,SSE,156,0.0,0.0,58,0.00,,,0.00,0,Wunderground v.1.15,2013-09-25 06:56:00,